Location: Keppel Henge
(44.7900°N, 80.9447°W)
Time: 06:16:24
(UTC-04:00)

Tiangong 1 - Pass Details

Date: 12 October 2017
Orbit: 292 x 320 km, 42.8° (Epoch: 22 October)

Event Time Altitude Azimuth Distance (km) Brightness Sun altitude
Rises 19:41:26 0° 270° (W) 2,046 7.0 -11.0°
Reaches altitude 10° 19:43:27 10° 264° (W) 1,209 5.1 -11.4°
Maximum altitude 19:46:05 46° 189° (S) 426 1.3 -11.8°
Enters shadow 19:47:34 21° 123° (ESE) 772 2.1 -12.1°
